Content
SEND FEEDBACK

Daily
Averages
Monthly
Summary
United Kingdom

BELFAST, NORTHERN IRELAND


Home > Europe > United Kingdom > Northern Ireland
Elevation: 16 feet     Latitude: 54 36N     Longitude: 005 53W

WEATHER
 
SELECT A DAY
Number of Records: 191,288;   Date Range: 7/1/96 - 8/28/14
 
SHARE

PRINT THIS DATA

[ ← Previous Day ]
WEATHER ALMANAC - SEPTEMBER 28, 2013
[ Next Day → ]
[ °C ]   °F
Weather ElementAverageHighLow
Temperature58.5 °F64.4 °F (1:50 pm)48.2 °F (6:50 am)
Dewpoint50.4 °F53.6 °F (9:20 am)46.4 °F (6:50 am)
Humidity75.2 %100 % (8:20 am)63 % (3:20 pm)
Barometer29.82 in29.86 in (8:50 am)29.80 in (2:20 pm)
Wind Speed6.3 mph10.4 mph (11:50 am)
Weather ElementAverage
Visibility5.5 mi
Wind DirectionENE (61.4 °)

Weather ElementTotal
Precipitation---
Heating Degree Days8.7 (Base 65)
Growing Degree Days6.3 (Base 50)
Averaged from 29 records on September 28, 2013
WEATHER CONDITIONS BREAKOUT
WIND DIRECTION BREAKOUT
WEATHER BY HOUR - SEPTEMBER 28, 2013
[ °C ]   °F
Local TimeTemperatureDewpointHumidityBarometerVisibilityWind DirectionWind SpeedGust SpeedPrecipitationEventsConditions
6:50 AM48.2 °F46.4 °F93 %29.83 in3.1 miCalmFogFog
7:20 AM48.2 °F46.4 °F93 %29.83 in5.0 miVariable3.5 mphFogFog
7:50 AM48.2 °F46.4 °F93 %29.83 in5.0 miCalmFogFog
8:20 AM50.0 °F50.0 °F100 %29.83 in5.0 miCalmFogFog
8:50 AM51.8 °F51.8 °F100 %29.86 in5.0 miVariable3.5 mphFogFog
9:20 AM55.4 °F53.6 °F94 %29.86 in5.0 miNorth (360°)4.6 mphPartly Cloudy
9:50 AM57.2 °F53.6 °F88 %29.86 in5.0 miNorth (10°)4.6 mphPartly Cloudy
10:20 AM59.0 °F51.8 °F77 %29.86 in5.0 miVariable2.3 mphPartly Cloudy
10:50 AM60.8 °F51.8 °F72 %29.86 in5.0 miEast (80°)8.1 mphPartly Cloudy
11:20 AM60.8 °F51.8 °F72 %29.86 in6.2 miEast (90°)9.2 mphPartly Cloudy
11:50 AM60.8 °F51.8 °F72 %29.83 in6.2 miEast (90°)10.4 mphPartly Cloudy
12:20 PM60.8 °F51.8 °F72 %29.83 in6.2 miEast (80°)10.4 mphPartly Cloudy
12:50 PM60.8 °F53.6 °F77 %29.83 in6.2 miEast (100°)9.2 mphPartly Cloudy
1:20 PM62.6 °F51.8 °F68 %29.83 in6.2 miENE (70°)6.9 mphPartly Cloudy
1:50 PM64.4 °F51.8 °F64 %29.83 in6.2 miVariable3.5 mphPartly Cloudy
2:20 PM64.4 °F53.6 °F68 %29.80 in6.2 miENE (60°)9.2 mphPartly Cloudy
2:50 PM62.6 °F51.8 °F68 %29.80 in6.2 miENE (60°)9.2 mphPartly Cloudy
3:20 PM62.6 °F50.0 °F63 %29.80 inNE (50°)9.2 mphClear
3:50 PM64.4 °F51.8 °F64 %29.80 inNE (50°)9.2 mphClear
4:20 PM62.6 °F50.0 °F63 %29.80 inENE (60°)8.1 mphClear
4:50 PM62.6 °F51.8 °F68 %29.80 inENE (60°)8.1 mphClear
5:20 PM62.6 °F50.0 °F63 %29.80 inVariable5.8 mphClear
5:50 PM60.8 °F50.0 °F68 %29.80 inEast (80°)8.1 mphClear
6:20 PM59.0 °F51.8 °F77 %29.80 inEast (90°)6.9 mphClear
6:50 PM59.0 °F48.2 °F67 %29.80 inEast (80°)4.6 mphClear
7:20 PM57.2 °F46.4 °F67 %29.80 inEast (100°)5.8 mphClear
7:50 PM57.2 °F46.4 °F67 %29.80 inEast (100°)5.8 mphClear
8:20 PM57.2 °F46.4 °F67 %29.80 inEast (80°)8.1 mphClear
8:50 PM55.4 °F48.2 °F77 %29.80 inNNE (30°)8.1 mphClear
Hourly data recorded from EGAC, located miles away from Belfast, Northern Ireland







STORIES FROM OUR PARTNERS